Perry, FL

1:51 AM EDT on October 22, 2017 (GMT -0400)
Perry

Weather History for K40J - October, 2012

Change the Weather History Date:

Friday, October 12, 2012

  Actual Average (KVLD) Record (KVLD)
Temperature  
Mean Temperature 69 °F -  
Max Temperature 84 °F 79 °F 89 °F (2002)
Min Temperature 54 °F 57 °F 44 °F (2000)
Cooling Degree Days 4    
Growing Degree Days 19 (Base 50)    
Moisture  
Dew Point 60 °F    
Average Humidity 76    
Maximum Humidity 100    
Minimum Humidity 46    
Precipitation  
Precipitation 0.00 in - - ()
Sea Level Pressure  
Sea Level Pressure 30.19 in    
Wind  
Wind Speed 2 mph (NE)    
Max Wind Speed 5 mph    
Max Gust Speed -    
Averages and records for this station are not official NWS values.
T = Trace of Precipitation, MM = Missing Value Source: NWS Daily Summary

Daily Weather History Graph

Daily Weather History Graph

Search for Another Location

Airport or City:

Trip Planner

Search our weather history database for the weather conditions in past years. The results will help you decide how hot, cold, wet, or windy it might be!

Date:

Astronomy

Oct. 12, 2012 Rise Set
Actual Time 7:34 AM EDT 7:06 PM EDT
Civil Twilight 7:10 AM EDT 7:30 PM EDT
Nautical Twilight 6:42 AM EDT 7:58 PM EDT
Astronomical Twilight 6:15 AM EDT 8:25 PM EDT
Moon 4:28 AM EDT (10/12) 5:05 PM EDT (10/12)
Length of Visible Light 12h 19m
Length of Day
11h 31m
Waning Crescent, 11% of the Moon is Illuminated
Oct 12
Waning Crescent
Oct 15
New
Oct 21
First Quarter
Oct 29
Full
Nov 6
Last Quarter

Hourly Weather History & Observations

Time (EDT) Temp. Heat Index Dew Point Humidity Pressure Visibility Wind Dir Wind Speed Gust Speed Precip Events Conditions
1:53 AM 62.1 °F - 57.0 °F 84% 30.19 in - NE 3.5 mph - N/A   Unknown
2:53 AM 60.1 °F - 57.0 °F 90% 30.18 in - Calm Calm - N/A   Unknown
3:53 AM 57.9 °F - 55.9 °F 93% 30.17 in - Calm Calm - N/A   Unknown
4:53 AM 57.0 °F - 55.9 °F 96% 30.18 in - Calm Calm - N/A   Unknown
5:53 AM 55.0 °F - 55.0 °F 100% 30.18 in - Calm Calm - N/A   Unknown
6:53 AM 55.0 °F - 54.0 °F 96% 30.19 in - Calm Calm - N/A   Unknown
7:53 AM 54.0 °F - 53.1 °F 97% 30.20 in - Calm Calm - N/A   Unknown
8:53 AM 63.0 °F - 60.1 °F 90% 30.23 in - Calm Calm - N/A   Unknown
9:53 AM 70.0 °F - 63.0 °F 78% 30.24 in - Calm Calm - N/A   Unknown
10:53 AM 75.9 °F - 60.1 °F 58% 30.25 in - East 4.6 mph - N/A   Unknown
11:53 AM 78.1 °F - 59.0 °F 52% 30.24 in - East 3.5 mph - N/A   Unknown
1:53 PM 82.0 °F 82.4 °F 60.1 °F 47% 30.19 in - Variable 3.5 mph - N/A   Unknown
2:53 PM 82.0 °F 82.7 °F 61.0 °F 49% 30.17 in - WSW 3.5 mph - N/A   Unknown
3:53 PM 84.0 °F 84.4 °F 61.0 °F 46% 30.16 in - Variable 4.6 mph - N/A   Unknown
4:53 PM 84.0 °F 84.5 °F 62.1 °F 47% 30.14 in - North 4.6 mph - N/A   Unknown
5:53 PM 82.9 °F 83.7 °F 62.1 °F 49% 30.14 in - Variable 3.5 mph - N/A   Unknown
6:53 PM 79.0 °F - 63.0 °F 58% 30.16 in - Calm Calm - N/A   Unknown
7:53 PM 71.1 °F - 64.9 °F 81% 30.16 in - Calm Calm - N/A   Unknown
8:53 PM 68.0 °F - 64.0 °F 87% 30.17 in - Calm Calm - N/A   Unknown
9:53 PM 68.0 °F - 64.0 °F 87% 30.19 in - Calm Calm - N/A   Unknown
10:53 PM 66.9 °F - 64.9 °F 93% 30.19 in - Calm Calm - N/A   Unknown
11:53 PM 66.0 °F - 64.0 °F 93% 30.20 in - Calm Calm - N/A   Unknown